Date,TemperatureHighF,TemperatureAvgF,TemperatureLowF,DewpointHighF,DewpointAvgF,DewpointLowF,HumidityHigh,HumidityAvg,HumidityLow,PressureMaxIn,PressureMinIn,WindSpeedMaxMPH,WindSpeedAvgMPH,GustSpeedMaxMPH,PrecipitationSumIn
2012-1-1,67.8,47.6,34.3,49.1,39.3,32.5,94,76,41,30.35,30.22,3,0,7,0.00
2012-1-2,64.8,47.0,38.7,48.6,40.8,35.7,92,80,48,30.41,30.26,4,0,7,0.01
2012-1-3,70.2,48.7,36.0,46.6,38.6,33.9,93,72,30,30.46,30.33,4,0,7,0.00
2012-1-4,39.6,37.5,36.3,35.7,34.3,33.4,90,88,85,30.46,30.41,0,0,1,0.00
2012-1-9,68.2,46.6,36.9,37.9,35.0,32.2,84,66,31,30.27,30.24,1,0,2,0.00
2012-1-10,71.1,46.5,31.8,42.2,32.7,26.7,90,65,19,30.29,30.15,4,0,7,0.00
2012-1-11,70.9,46.6,32.0,40.5,31.4,26.8,88,62,20,30.25,30.09,2,0,4,0.00
2012-1-12,70.0,46.5,31.1,39.5,29.6,20.9,88,59,16,30.24,30.12,3,0,7,0.00
2012-1-13,71.8,47.3,31.5,38.4,29.2,22.0,86,57,16,30.35,30.23,3,0,8,0.00
2012-1-14,72.5,47.3,30.6,37.9,28.8,19.9,86,56,14,30.31,30.13,2,0,4,0.00
2012-1-15,61.7,47.1,36.3,41.9,33.3,21.1,74,59,42,30.21,30.02,8,2,14,0.00
2012-1-16,46.4,33.7,26.4,27.3,20.1,12.8,74,58,36,30.42,30.21,2,0,6,0.00
2012-1-17,35.6,31.1,23.9,26.1,22.4,16.0,78,70,61,30.51,30.41,0,0,1,0.00
2012-1-18,35.6,35.6,35.6,26.1,26.1,26.1,68,68,68,30.50,30.50,0,0,1,0.00
2012-1-19,35.6,35.6,35.6,26.1,26.1,26.1,68,68,68,30.50,30.50,0,0,1,0.00
2012-1-20,35.6,35.6,35.6,26.1,26.1,26.1,68,68,68,30.50,30.50,0,0,1,0.00
2012-1-21,35.6,35.6,35.6,26.1,26.1,26.1,68,68,68,30.50,30.50,0,0,1,0.00
2012-1-22,35.6,35.6,35.6,26.1,26.1,26.1,68,68,68,30.50,30.50,0,0,1,0.00
2012-1-23,35.6,35.6,35.6,26.1,26.1,26.1,68,68,68,30.50,30.50,0,0,1,0.00
2012-1-24,35.6,35.6,35.6,26.1,26.1,26.1,68,68,68,30.50,30.50,0,0,1,0.00
2012-1-25,35.6,35.6,35.6,26.1,26.1,26.1,68,68,68,30.50,30.50,0,0,1,0.00
2012-2-15,62.8,54.4,45.3,31.7,25.2,20.5,58,34,20,30.23,30.10,8,3,20,0.00
2012-2-16,71.8,52.5,35.2,33.5,26.1,11.8,67,42,10,30.32,30.20,4,1,11,0.00
2012-2-17,70.9,54.2,38.7,39.2,33.2,26.6,77,49,19,30.35,30.20,4,0,6,0.00
2012-2-18,61.7,50.3,38.3,50.0,42.6,33.1,88,75,62,30.24,30.12,5,1,11,0.00
2012-2-19,64.8,48.3,36.9,37.7,28.4,4.7,84,55,10,30.20,30.07,4,1,6,0.00
2012-2-20,61.3,52.1,43.5,46.0,41.1,37.7,80,67,47,30.27,30.15,3,1,8,0.00
2012-2-21,72.3,53.3,38.7,46.5,41.7,35.9,91,68,37,30.38,30.25,4,0,7,0.00
2012-2-22,76.6,57.5,44.8,49.9,44.1,40.3,88,65,31,30.36,30.11,3,0,8,0.00
2012-2-23,76.8,60.9,47.3,46.4,27.4,9.8,83,37,10,30.11,29.98,9,3,20,0.00
2012-2-24,76.6,59.0,39.0,44.5,32.2,17.2,71,40,11,30.18,30.04,6,1,12,0.00
2012-2-25,67.8,53.1,40.1,44.1,30.0,15.2,86,47,15,30.38,30.18,9,2,17,0.00
2012-2-26,61.5,48.1,31.8,30.7,22.9,6.5,73,42,12,30.25,29.90,4,1,11,0.00
2012-2-27,60.1,46.6,35.1,37.5,30.3,24.0,83,56,25,30.00,29.85,5,1,8,0.00
2012-2-28,58.6,48.2,38.3,38.0,33.3,28.7,81,59,35,30.26,29.99,8,3,19,0.00
2012-2-29,55.2,48.6,44.8,46.1,41.1,35.6,92,76,54,30.29,30.10,10,3,19,0.31
2012-3-1,55.0,47.8,41.9,47.1,42.4,38.9,89,82,72,30.31,30.22,8,2,16,0.05
2012-3-2,68.2,49.9,35.1,38.9,31.8,24.8,91,56,21,30.42,30.31,5,1,12,0.01
2012-3-3,73.9,53.3,35.6,44.6,35.1,25.5,88,57,17,30.45,30.29,3,0,6,0.00
2012-3-4,79.2,57.7,38.8,49.6,39.9,30.3,90,58,17,30.32,30.09,4,0,7,0.00
2012-3-5,77.7,59.4,41.5,50.2,39.8,29.1,88,54,18,30.14,29.96,5,2,11,0.00
2012-3-6,63.0,52.7,40.6,43.3,22.1,-0.1,82,39,10,30.11,29.91,9,3,20,0.00
2012-3-7,69.3,51.4,36.1,26.1,16.2,4.9,52,29,10,30.25,30.11,8,2,16,0.00
2012-3-8,71.8,53.5,34.0,35.3,23.6,8.7,75,40,10,30.40,30.24,7,1,9,0.00
2012-3-9,78.4,56.7,37.0,42.2,31.5,15.7,82,47,10,30.41,30.16,4,0,6,0.00
2012-3-10,70.2,53.9,43.0,46.8,40.0,33.8,80,61,31,30.16,29.98,7,2,16,0.00
2012-3-11,62.6,53.6,47.3,46.0,41.9,35.7,83,66,48,30.12,30.03,6,2,11,0.00
2012-3-12,65.1,53.6,41.0,39.8,36.6,34.1,78,55,32,30.12,29.96,7,1,11,0.00
2012-3-13,55.8,54.4,52.0,51.6,47.0,39.2,88,77,58,30.05,29.93,9,3,17,0.26
2012-3-14,58.6,55.5,53.2,56.3,53.2,50.4,94,92,88,30.19,30.03,6,2,14,0.93
2012-3-15,62.2,58.3,56.3,57.8,55.2,53.4,93,90,81,30.22,30.09,4,1,7,0.05
2012-3-16,58.1,55.6,49.1,56.1,53.2,46.3,95,92,86,30.10,29.74,9,2,17,0.96
2012-3-17,54.7,47.2,41.0,47.5,42.2,36.8,93,83,59,29.78,29.54,4,1,8,0.16
2012-3-18,55.9,46.2,40.5,42.3,39.1,33.9,94,78,49,29.98,29.66,6,2,14,0.11
2012-3-19,57.0,47.2,35.1,41.3,34.8,29.2,90,64,36,30.15,29.98,4,1,8,0.00
2012-3-20,69.1,53.6,47.3,44.7,40.1,30.1,79,63,26,30.28,30.15,4,0,8,0.00
2012-3-21,74.7,60.5,45.0,49.4,45.6,41.0,88,61,38,30.23,29.99,6,1,9,0.00
2012-3-22,63.5,57.9,47.5,50.7,42.4,12.2,84,60,15,30.04,29.93,7,2,11,0.00
2012-3-23,65.7,53.4,41.4,39.7,32.5,16.0,78,49,15,30.17,29.94,4,1,10,0.00
2012-3-24,57.9,51.6,45.7,42.6,39.8,34.6,85,65,49,29.97,29.87,4,1,10,0.00
2012-3-25,63.1,50.8,44.1,48.1,42.6,40.0,92,75,46,29.95,29.82,4,1,7,0.35
2012-3-26,62.1,52.8,42.8,43.2,40.7,37.6,91,66,41,30.16,29.91,7,2,11,0.00
2012-3-27,60.3,53.8,50.5,50.1,43.1,31.7,92,69,35,30.10,29.95,8,2,16,0.82
2012-3-28,69.8,57.9,52.3,54.8,48.9,39.3,94,74,41,30.17,30.01,7,2,12,0.15
2012-3-29,66.9,56.6,45.5,52.3,47.1,42.6,92,73,44,30.20,30.11,4,1,8,0.01
2012-3-30,72.7,61.5,52.2,55.2,51.5,49.6,93,72,45,30.17,29.94,5,1,11,0.04
2012-3-31,63.0,54.4,47.1,52.8,47.5,40.7,91,78,52,30.05,29.74,9,3,21,0.33
2012-4-1,67.5,54.1,42.3,48.5,38.3,22.9,94,62,20,30.31,30.05,6,1,12,0.01
2012-4-2,72.5,55.5,40.6,43.5,38.5,29.6,84,57,21,30.29,30.06,4,1,7,0.00
2012-4-3,70.7,58.4,48.6,51.2,43.8,38.0,89,61,32,30.14,29.99,7,2,14,0.10
2012-4-4,67.3,54.3,39.6,50.0,34.1,17.5,91,53,17,30.24,30.08,4,1,9,0.01
2012-4-5,64.9,50.4,34.5,39.7,29.3,8.2,88,52,11,30.22,30.09,5,1,9,0.00
2012-4-6,67.8,51.7,35.6,38.7,30.7,17.1,85,51,15,30.34,30.20,5,1,11,0.00
2012-4-7,72.9,54.8,36.1,43.4,32.8,14.3,87,52,11,30.23,30.06,4,1,8,0.00
2012-4-8,78.3,60.1,42.3,45.6,37.5,26.9,86,50,16,30.12,30.00,6,1,11,0.00
2012-4-9,77.7,59.9,43.9,43.3,35.8,17.9,80,47,11,30.06,29.84,6,1,11,0.00
2012-4-10,65.1,56.7,49.8,51.1,45.1,34.8,82,66,46,29.97,29.85,4,1,6,0.00
2012-4-11,62.6,53.8,49.5,50.8,48.1,41.7,92,82,49,30.05,29.85,8,2,14,0.47
2012-4-12,61.0,51.6,47.7,50.6,46.8,44.3,93,84,64,30.12,29.86,9,2,17,1.03
2012-4-13,60.6,50.2,46.0,49.3,45.9,42.3,94,85,64,29.89,29.75,7,1,11,0.46
2012-4-14,69.6,55.5,44.4,50.4,45.7,42.0,94,72,41,30.15,29.88,4,1,8,0.01
2012-4-15,77.0,60.1,45.1,50.7,45.7,36.1,90,64,23,30.27,30.15,6,1,10,0.00
2012-4-16,77.5,62.0,47.8,46.2,36.0,12.3,80,46,10,30.27,30.16,6,2,11,0.00
2012-4-17,76.5,62.6,49.6,51.7,46.0,36.2,81,57,27,30.21,30.06,5,2,12,0.00
2012-4-18,74.5,62.7,51.3,52.6,47.3,39.2,86,62,28,30.18,30.07,4,2,8,0.01
2012-4-19,86.2,70.2,53.6,58.2,53.6,49.8,88,59,32,30.18,30.04,6,1,12,0.00
2012-4-20,92.5,74.2,57.4,61.5,56.3,46.7,90,59,21,30.09,29.93,3,1,7,0.00
2012-4-21,94.1,75.7,57.9,64.2,57.4,49.1,92,59,22,30.01,29.85,4,1,8,0.00
2012-4-22,95.5,77.9,59.7,64.2,57.6,49.5,91,56,23,29.91,29.79,4,1,8,0.00
2012-4-23,76.6,64.6,55.6,56.3,52.2,49.5,88,66,42,30.03,29.87,6,2,12,0.00
2012-4-24,80.2,67.7,57.0,54.9,52.1,48.7,79,60,35,30.10,29.92,4,1,8,0.00
2012-4-25,70.9,63.1,57.9,61.5,56.3,52.0,93,79,66,30.03,29.80,4,1,7,0.52
2012-4-26,69.8,60.7,50.5,57.7,49.2,38.6,95,69,33,30.22,29.80,8,2,15,15.86
2012-4-27,76.5,59.0,43.3,48.7,39.6,31.2,91,56,21,30.27,30.13,5,1,13,0.00
2012-4-28,85.5,66.3,46.2,53.9,45.7,38.8,89,54,20,30.14,29.85,4,1,8,0.00
2012-4-29,88.7,70.1,52.3,59.0,49.3,27.3,91,56,13,29.95,29.84,3,0,6,0.00
2012-4-30,87.4,71.1,56.8,56.8,52.3,40.1,87,56,19,29.98,29.82,7,2,12,0.00
2012-5-1,81.1,64.8,51.8,52.6,45.7,27.4,86,55,15,29.94,29.83,4,2,10,0.00
2012-5-2,73.9,60.4,48.4,49.0,43.2,35.4,79,55,26,29.99,29.89,7,2,11,0.00
2012-5-3,66.7,58.6,51.1,52.4,48.0,42.3,80,68,56,30.12,29.96,4,2,11,0.00
2012-5-4,75.9,62.6,52.7,51.9,45.1,31.4,88,58,20,30.21,30.11,7,1,12,0.01
2012-5-5,81.5,65.2,48.6,45.7,35.3,17.8,82,41,10,30.25,30.04,7,2,19,0.01
2012-5-6,89.1,69.6,53.6,45.9,33.1,21.2,61,32,10,30.09,29.96,5,2,12,0.00
2012-5-7,94.3,72.3,48.2,49.2,37.6,22.0,82,40,10,30.06,29.91,6,1,11,0.00
2012-5-8,96.6,74.6,50.9,52.7,39.5,22.4,83,39,10,30.00,29.86,4,0,6,0.00
2012-5-9,94.5,75.5,55.2,53.0,40.1,24.7,71,35,10,29.97,29.82,5,1,9,0.00
2012-5-10,90.5,71.9,52.2,50.4,38.0,20.2,79,37,10,29.94,29.80,5,1,11,0.00
2012-5-11,95.0,73.1,52.3,50.4,38.9,21.2,81,40,10,29.96,29.86,4,1,10,0.00
2012-5-12,97.3,76.7,54.9,51.6,42.2,26.1,75,37,10,30.06,29.93,4,0,8,0.00
2012-5-13,82.6,68.0,56.5,51.9,48.1,42.0,70,52,26,30.08,29.93,6,2,13,0.00
2012-5-14,78.3,66.3,54.3,49.6,45.9,39.4,80,51,27,30.15,30.01,5,2,11,0.00
2012-5-15,86.2,69.0,53.2,52.9,48.2,41.5,80,52,21,30.07,29.91,4,1,8,0.00
2012-5-16,89.1,70.3,53.1,54.1,50.5,46.9,84,54,26,30.05,29.84,4,1,9,0.00
2012-5-17,80.6,66.4,55.2,50.0,47.3,41.7,77,53,26,29.91,29.77,9,2,17,0.00
2012-5-18,89.1,69.9,50.5,52.3,39.9,17.1,86,44,10,29.97,29.84,4,1,11,0.00
2012-5-19,92.7,72.1,52.5,48.5,40.0,23.2,73,39,10,30.00,29.89,3,1,9,0.00
2012-5-20,96.8,76.2,54.7,61.1,46.9,27.7,78,42,10,30.00,29.85,4,1,8,0.00
2012-5-21,86.4,70.6,58.1,54.7,49.3,40.3,73,50,21,30.08,29.95,7,2,14,0.00
2012-5-22,88.2,71.7,57.4,57.6,49.5,25.8,88,53,11,30.11,29.95,4,1,9,0.00
2012-5-23,87.1,69.7,52.0,52.8,38.5,19.3,88,42,10,30.03,29.84,5,1,11,0.00
2012-5-24,83.8,69.9,56.5,47.6,36.4,19.0,65,34,10,29.89,29.58,6,2,13,0.00
2012-5-25,71.8,59.9,49.3,42.7,36.5,24.2,74,45,17,29.84,29.69,5,1,9,0.00
2012-5-26,76.5,62.4,51.3,51.3,44.9,40.2,75,55,28,30.09,29.83,6,2,12,0.00
2012-5-27,81.7,64.4,48.7,52.0,46.0,32.6,88,57,18,30.18,30.02,4,1,8,0.00
2012-5-28,79.2,64.8,51.8,52.1,44.3,28.4,81,52,17,30.10,29.98,6,2,12,0.00
2012-5-29,86.5,69.0,49.6,51.8,45.2,36.1,80,48,17,30.10,29.96,3,1,8,0.00
2012-5-30,94.3,74.7,53.1,55.2,45.5,26.2,84,45,10,30.10,29.94,4,1,9,0.00
2012-5-31,99.5,79.2,58.6,54.5,45.8,29.1,68,37,10,30.04,29.81,4,1,7,0.00
2012-6-1,99.5,75.5,61.7,57.8,54.4,44.9,78,51,16,29.85,29.67,5,1,9,0.00
2012-6-2,92.7,75.8,61.5,58.1,52.6,47.8,71,47,24,29.91,29.75,7,2,12,0.00
2012-6-3,93.2,73.8,57.0,50.0,44.7,31.4,70,41,12,29.94,29.80,4,2,11,0.00
2012-6-4,69.8,62.7,54.1,56.3,51.2,41.8,86,67,47,30.10,29.90,9,2,14,0.04
2012-6-5,75.2,62.0,48.9,46.4,38.5,15.4,83,49,11,30.22,30.10,4,1,10,0.00
2012-6-6,84.6,67.7,49.6,47.4,39.5,21.2,79,42,10,30.10,29.91,4,1,11,0.00
2012-6-7,89.1,70.1,55.0,51.7,44.5,34.1,71,44,15,30.02,29.88,6,2,9,0.00
2012-6-8,87.6,71.3,56.8,53.7,42.5,23.0,78,43,10,29.98,29.82,5,1,11,0.00
2012-6-9,85.5,69.6,51.4,44.5,31.6,17.5,75,31,10,30.03,29.83,9,2,21,0.00
2012-6-10,94.1,76.4,58.8,49.2,34.0,22.8,56,26,10,29.94,29.85,4,1,10,0.00
2012-6-11,99.1,78.9,56.5,55.2,39.9,23.5,75,34,10,29.97,29.86,3,0,6,0.00
2012-6-12,99.3,80.3,58.6,54.1,45.1,30.0,69,35,10,29.96,29.80,4,1,8,0.00
2012-6-13,98.4,78.8,60.6,56.3,50.5,31.2,71,43,10,29.87,29.66,4,1,9,0.00
2012-6-14,99.5,79.1,62.2,54.7,48.1,31.9,65,39,10,29.77,29.66,4,1,10,0.00
2012-6-15,100.8,80.5,58.6,50.5,43.8,32.3,63,33,10,29.80,29.70,4,1,9,0.00
2012-6-16,107.8,86.8,63.7,61.1,48.1,33.9,78,35,10,29.83,29.72,4,1,11,0.00
2012-6-17,101.7,84.0,66.9,62.1,50.5,33.5,78,39,10,29.83,29.73,7,2,12,0.00
2012-6-18,88.5,72.9,59.0,53.7,47.6,29.1,78,45,12,29.90,29.74,6,2,11,0.00
2012-6-19,95.9,74.9,55.6,52.6,42.2,23.1,74,39,10,29.90,29.78,4,1,8,0.00
2012-6-20,100.8,80.2,58.1,54.1,42.1,28.0,78,35,10,29.85,29.73,4,1,10,0.00
2012-6-21,78.3,68.1,56.1,50.7,47.9,45.2,74,50,32,29.92,29.77,9,3,14,0.00
2012-6-22,75.4,64.2,52.2,53.9,49.9,46.8,83,62,42,29.95,29.85,7,2,14,0.00
2012-6-23,78.1,65.4,53.2,52.2,42.2,23.4,85,50,14,29.95,29.84,6,2,11,0.00
2012-6-24,80.8,65.5,51.6,49.1,36.9,16.5,84,44,10,30.05,29.94,6,2,9,0.00
2012-6-25,79.5,66.4,52.7,48.0,43.8,34.7,76,47,21,30.13,29.98,5,2,12,0.00
2012-6-26,84.4,68.9,51.6,53.8,45.9,29.3,86,50,14,30.09,29.85,6,1,11,0.00
2012-6-27,92.8,73.6,51.4,53.0,38.8,18.5,83,39,10,29.93,29.83,4,1,8,0.00
2012-6-28,92.1,74.7,57.9,52.4,41.8,26.1,66,37,10,30.04,29.77,6,2,11,0.00
2012-6-29,88.7,72.3,58.5,56.1,51.6,42.5,82,53,21,30.09,29.95,5,2,9,0.00
2012-6-30,91.6,74.5,58.6,60.7,56.4,53.2,86,57,29,30.02,29.86,5,2,10,0.00
2012-7-1,89.4,74.4,63.0,60.7,57.9,54.0,84,60,31,29.98,29.82,6,2,11,0.00
2012-7-2,95.4,77.0,61.5,62.0,55.8,48.2,84,53,21,29.89,29.77,5,2,10,0.00
2012-7-3,96.3,76.5,58.6,55.4,48.6,26.6,75,44,10,29.92,29.75,4,1,8,0.00
2012-7-4,97.0,78.9,61.5,55.3,47.9,29.6,69,40,10,29.84,29.75,5,1,10,0.00
2012-7-5,90.0,72.6,57.6,53.4,47.9,35.2,79,47,15,29.96,29.83,6,2,14,0.00
2012-7-6,96.8,75.6,55.6,55.8,45.1,26.5,82,43,10,30.03,29.89,3,1,7,0.00
2012-7-7,102.2,82.5,60.1,53.1,42.1,25.3,69,31,10,29.99,29.85,4,1,10,0.00
2012-7-8,101.7,81.8,62.4,50.0,41.8,31.2,52,29,10,29.98,29.88,4,1,8,0.00
2012-7-9,100.9,79.5,59.7,53.0,44.4,28.7,72,37,10,30.02,29.88,4,1,8,0.00
2012-7-10,105.1,81.6,57.6,53.5,44.0,27.2,75,35,10,29.96,29.77,5,1,8,0.00
2012-7-11,108.1,84.6,59.5,56.4,12.2,-99.9,76,32,10,29.88,29.74,4,1,8,0.04
2012-7-12,107.4,86.5,63.5,58.7,46.1,30.8,70,32,10,29.81,29.71,4,1,7,0.01
2012-7-13,90.1,74.2,59.2,52.8,49.9,41.6,77,45,19,29.90,29.78,7,2,11,0.00
2012-7-14,91.4,71.9,55.6,57.5,51.4,36.5,87,55,15,29.97,29.81,4,1,8,0.00
2012-7-15,97.9,77.0,59.0,58.6,51.5,33.3,79,48,11,29.91,29.73,5,1,10,0.00
2012-7-16,78.6,67.2,57.4,54.9,51.6,44.6,85,60,32,29.92,29.80,8,3,17,0.00
2012-7-17,79.3,66.7,59.7,54.2,51.6,48.6,75,60,36,30.02,29.92,6,2,11,0.00
2012-7-18,88.9,72.2,56.5,55.9,50.9,43.0,81,52,21,30.03,29.91,5,1,8,0.00
2012-7-19,88.3,73.3,63.1,57.0,50.7,34.9,70,49,17,30.05,29.94,5,1,8,0.00
2012-7-20,96.6,77.0,57.9,59.4,49.5,29.7,88,47,10,30.10,29.92,5,1,10,0.00
2012-7-21,105.1,82.9,61.0,59.4,48.4,30.8,80,40,10,29.98,29.81,4,1,10,0.00
2012-7-22,107.1,86.6,64.2,58.9,48.2,34.3,77,35,10,29.89,29.75,4,1,8,0.00
2012-7-23,95.2,80.1,66.7,57.6,48.2,30.0,72,37,11,29.91,29.80,5,2,10,0.02
2012-7-24,95.4,77.6,60.1,53.6,44.0,25.4,75,37,10,29.97,29.83,4,1,8,0.00
2012-7-25,95.7,77.0,60.4,53.4,44.7,23.2,71,39,10,30.00,29.84,4,1,9,0.00
2012-7-26,90.9,72.6,56.5,54.0,49.3,33.5,84,50,14,29.99,29.84,4,2,9,0.00
2012-7-27,65.1,58.9,55.8,54.6,52.1,50.9,87,78,64,30.01,29.92,4,2,8,0.00
2012-8-1,73.9,73.3,72.7,50.9,50.1,49.4,46,44,42,29.93,29.93,1,0,3,0.01
2012-8-2,102.6,82.8,72.7,62.1,52.2,45.8,46,35,27,29.99,29.81,2,1,5,0.01
2012-8-3,84.0,79.5,73.8,54.5,52.1,49.9,51,39,31,29.88,29.86,2,1,4,0.01
2012-8-4,73.2,71.7,70.2,53.7,53.3,52.3,55,52,48,29.91,29.88,3,2,7,0.01
2012-8-5,68.2,66.9,65.5,55.3,53.5,52.2,69,62,57,30.04,29.95,2,1,4,0.01
2012-8-6,86.5,76.6,65.8,52.5,47.7,42.4,61,38,22,30.06,29.98,2,0,3,0.00
2012-8-7,83.7,75.5,70.0,55.6,52.4,50.6,51,45,36,30.03,30.00,1,0,2,0.00
2012-8-10,97.5,95.9,95.2,66.8,51.2,30.2,37,26,10,29.68,29.68,2,0,2,0.00
2012-8-11,109.4,93.4,81.5,58.1,44.2,24.9,45,20,10,29.78,29.67,2,1,6,0.00
2012-8-12,93.0,84.8,79.5,57.0,47.3,39.0,33,27,22,29.83,29.75,2,0,5,0.00
2012-8-13,97.5,87.9,83.3,56.8,47.6,43.8,26,25,24,29.73,29.69,2,0,4,0.00
2012-8-14,86.9,80.8,76.3,46.8,43.6,40.7,31,27,24,29.79,29.74,2,1,6,0.00
2012-8-15,68.2,68.0,67.8,53.3,53.1,53.0,59,59,59,29.81,29.80,2,1,6,0.00
2012-8-16,81.9,75.0,70.0,54.8,51.9,45.9,57,45,37,29.93,29.87,3,1,5,0.00
2012-8-17,86.5,81.9,72.5,49.9,48.7,45.9,40,32,27,29.89,29.84,2,1,5,0.00
2012-8-18,101.3,92.9,71.6,77.9,61.8,38.4,49,39,14,29.94,29.80,4,2,7,0.00
2012-8-19,98.2,87.0,69.4,50.4,45.2,31.6,48,26,10,29.91,29.81,4,1,6,0.00
2012-8-21,77.9,73.1,69.3,52.6,51.3,50.6,52,47,40,29.90,29.83,3,1,6,0.00
2012-8-22,80.4,71.7,66.9,57.1,53.8,50.9,58,53,38,29.91,29.83,3,1,4,0.00
2012-8-28,97.3,85.8,67.8,56.1,42.5,24.9,47,25,10,30.03,29.88,5,1,8,0.00
2012-8-29,99.0,76.5,54.1,55.5,43.1,25.0,79,39,10,29.94,29.76,4,1,8,0.00
2012-8-30,100.4,78.3,56.8,57.3,41.9,22.8,78,38,10,29.81,29.69,5,1,13,0.00
2012-8-31,79.0,66.0,55.4,55.1,52.2,49.7,86,63,38,29.96,29.79,5,2,12,0.00
2012-9-1,85.5,66.8,54.0,55.7,50.6,38.4,88,61,21,30.07,29.93,4,1,7,0.00
2012-9-2,95.4,73.6,53.4,58.4,45.8,26.1,90,49,10,30.00,29.86,3,0,5,0.00
2012-9-3,98.2,77.0,55.9,58.3,43.0,25.9,77,39,10,29.99,29.86,4,0,8,0.00
2012-9-4,99.9,78.1,56.8,55.0,41.6,27.3,75,35,10,30.01,29.88,4,0,6,0.00
2012-9-5,88.0,72.9,58.8,55.0,48.4,40.7,75,46,22,30.00,29.86,3,0,6,0.00
2012-9-6,99.0,75.6,62.8,51.8,41.1,22.7,62,34,10,29.99,29.87,4,1,9,0.00
2012-9-7,95.9,76.2,59.0,50.5,41.4,26.1,65,36,10,30.08,29.93,4,1,9,0.00
2012-9-8,97.2,76.9,62.4,49.8,43.3,30.0,58,35,10,30.04,29.87,4,1,8,0.00
2012-9-9,94.6,74.2,59.9,49.6,42.0,25.4,65,38,10,29.98,29.83,4,1,8,0.00
2012-9-10,95.7,73.2,52.7,54.9,44.5,25.6,85,45,10,29.95,29.75,3,0,6,0.00
2012-9-11,97.0,76.1,55.4,55.9,44.0,27.7,77,40,10,29.91,29.80,4,0,8,0.00
2012-9-12,96.6,76.9,59.9,54.4,48.1,32.5,71,42,11,30.05,29.91,4,1,8,0.00
2012-9-13,100.0,78.8,59.4,58.5,50.2,33.3,79,45,10,30.10,29.94,4,0,6,0.00
2012-9-14,97.3,78.2,61.9,56.3,51.6,41.1,71,44,15,30.08,29.93,4,1,8,0.00
2012-9-15,97.7,76.5,59.7,51.7,43.8,25.9,64,39,10,30.08,29.93,4,1,6,0.00
2012-9-16,97.3,75.4,56.1,49.5,41.6,27.6,68,37,10,30.04,29.91,3,0,6,0.00
2012-9-17,91.9,72.3,58.1,51.2,44.7,30.7,70,43,13,30.03,29.90,4,1,8,0.00
2012-9-18,92.8,70.4,54.0,50.6,44.6,24.7,80,47,10,30.10,29.93,4,1,8,0.00
2012-9-19,91.2,70.6,55.9,54.0,47.8,31.2,81,50,12,30.10,29.95,4,1,6,0.00
2012-9-20,94.1,72.4,54.5,54.9,46.0,28.4,81,47,10,30.07,29.90,97,1,98,0.00
2012-9-21,93.7,72.6,55.8,54.5,45.6,31.3,73,43,11,30.01,29.83,3,0,5,0.00
2012-9-22,98.2,76.2,56.7,54.5,44.7,28.8,75,41,10,29.95,29.82,3,0,7,0.00
2012-9-23,93.9,74.5,59.4,55.2,44.2,24.0,79,43,10,29.96,29.85,4,1,8,0.00
2012-9-24,91.8,71.9,57.4,52.2,42.0,23.8,71,41,10,29.98,29.82,3,1,5,0.00
2012-9-25,93.9,72.2,53.6,53.5,45.1,27.8,79,47,10,29.92,29.77,3,0,6,0.00
2012-9-26,93.7,72.3,56.3,56.0,49.4,32.5,82,52,12,29.92,29.77,4,0,5,0.00
2012-9-27,98.4,75.4,56.5,59.4,51.8,37.3,86,52,13,29.94,29.78,4,0,7,0.00
2012-9-28,97.0,75.2,57.4,60.9,50.5,30.8,86,52,10,29.92,29.78,4,1,8,0.00
2012-9-29,96.8,74.4,57.6,57.6,49.5,30.0,82,50,10,30.05,29.82,4,1,5,0.00
2012-9-30,98.8,85.4,65.8,56.1,46.6,31.9,70,33,10,30.05,29.93,4,1,8,0.00
2012-10-1,101.7,77.0,57.2,63.3,48.3,28.3,89,48,10,30.04,29.85,3,0,5,0.00
2012-10-2,102.9,77.9,58.3,60.0,47.9,29.3,82,46,10,29.92,29.76,3,0,6,0.00
2012-10-3,99.5,78.5,57.7,60.6,44.7,29.9,80,39,10,29.93,29.80,3,1,6,0.00
2012-10-4,79.2,68.0,59.0,55.5,52.6,50.5,82,60,38,30.11,29.93,7,2,11,0.00
2012-10-5,80.2,60.5,56.7,55.8,52.2,48.8,85,75,34,30.18,30.06,4,2,8,0.00
2012-10-6,78.4,65.6,55.6,54.8,50.9,46.1,85,62,34,30.10,29.94,4,1,8,0.00
2012-10-7,83.1,66.3,52.7,54.9,49.8,47.2,87,59,30,30.04,29.89,4,1,7,0.00
2012-10-8,78.8,64.6,53.6,52.0,47.9,39.8,82,58,25,30.06,29.97,5,1,10,0.00
2012-10-9,79.9,63.9,52.0,55.9,48.9,41.3,89,63,26,30.07,29.93,4,1,8,0.00
2012-10-10,83.5,67.0,51.3,53.6,47.4,35.8,87,55,19,29.98,29.84,4,1,8,0.00
2012-10-11,63.5,57.0,52.5,53.7,50.8,49.4,90,80,67,30.02,29.88,4,1,7,0.00
2012-10-12,58.8,57.7,56.3,51.4,50.6,49.4,80,77,75,30.26,30.07,2,0,2,0.00
2012-10-13,79.3,75.4,69.4,53.6,50.9,47.7,56,43,34,30.33,30.20,4,2,11,0.00
2012-10-14,81.5,78.2,74.5,56.1,54.2,51.9,49,44,37,30.24,30.16,3,1,4,0.00
2012-10-15,72.1,66.5,63.9,56.9,56.0,54.0,78,69,53,29.98,29.93,1,0,2,0.00
2012-10-16,79.2,70.0,65.7,61.3,57.7,54.4,72,65,51,30.00,29.86,3,1,6,0.00
2012-10-17,65.1,63.8,63.1,50.5,50.2,50.0,63,61,58,29.87,29.86,0,0,0,0.00
2012-10-18,84.6,73.9,66.9,55.8,48.4,43.6,67,42,25,30.03,29.93,3,1,6,0.00
2012-10-19,77.0,67.4,61.5,59.7,58.3,55.6,90,75,52,30.07,30.02,4,2,7,0.00
2012-10-20,72.5,68.1,58.3,55.2,53.3,48.5,74,60,50,29.91,29.76,3,1,6,0.00
2012-10-21,66.7,59.5,56.8,48.7,41.0,28.6,71,52,25,29.94,29.83,4,2,8,0.00
2012-10-22,58.6,56.7,52.7,48.6,46.6,45.5,86,69,64,29.97,29.90,5,2,10,0.92
2012-10-23,59.2,51.1,46.6,52.0,46.8,42.5,92,85,75,30.10,29.96,3,1,7,0.15
2012-10-24,67.5,57.5,51.1,50.8,47.6,44.2,90,71,44,30.24,30.12,5,1,9,0.04
2012-10-25,67.8,56.4,51.3,52.8,46.6,40.9,81,70,53,30.33,30.23,5,1,8,0.01
2012-10-26,63.3,54.4,51.1,46.6,44.5,40.5,82,70,47,30.28,30.12,2,0,5,0.01
2012-10-27,61.2,57.6,51.6,51.4,49.3,46.3,83,74,69,30.12,29.99,0,0,2,0.03
2012-10-28,76.8,62.1,57.4,54.2,53.3,50.0,86,75,40,30.04,29.95,0,0,0,0.01
2012-10-29,68.0,60.1,57.4,53.6,53.3,53.2,86,80,60,30.04,30.03,0,0,0,0.02
2012-11-8,45.7,43.4,42.4,42.9,40.8,39.8,91,90,90,29.96,29.93,2,0,2,0.18
2012-11-9,49.3,48.9,48.4,39.7,39.4,38.7,70,70,69,29.99,29.96,2,0,3,0.18
2012-11-11,39.6,39.1,38.3,35.3,35.0,34.5,86,85,84,30.45,30.44,0,0,0,0.00
2012-11-12,47.5,42.7,40.3,37.0,36.5,36.1,86,79,65,30.36,30.32,0,0,1,0.01
2012-11-13,48.4,46.0,44.1,41.7,40.7,39.8,85,82,77,30.19,30.16,0,0,0,0.00
2012-11-14,48.0,46.7,43.9,44.4,43.1,39.8,89,87,85,30.18,30.08,0,0,1,0.01
2012-11-15,70.2,57.0,47.7,49.7,45.5,41.8,88,69,38,30.11,29.99,2,0,4,0.03
2012-11-16,58.3,54.5,48.0,54.3,50.6,44.3,94,87,72,30.07,29.93,1,0,2,0.09
2012-11-17,55.9,55.8,55.6,54.2,53.8,53.3,94,93,92,30.04,29.93,1,0,3,0.84
2012-11-18,55.6,53.8,53.4,53.9,51.0,50.6,94,90,90,30.23,30.03,4,0,8,0.84
2012-11-19,60.3,58.5,54.7,49.1,47.4,46.6,74,67,62,30.21,30.20,2,1,4,0.01
2012-11-20,63.0,60.5,57.2,53.9,51.4,48.4,88,72,62,30.18,30.07,5,2,9,0.15
2012-11-21,57.2,57.1,57.0,53.8,53.7,53.5,89,88,88,30.11,30.11,1,0,3,0.17
2012-11-22,68.5,60.8,45.3,52.1,48.6,42.7,91,65,49,30.30,30.21,2,1,5,0.02
2012-11-23,72.0,59.1,45.0,53.9,48.2,36.9,92,70,46,30.45,30.23,3,1,8,3.35
2012-11-24,69.1,63.0,43.9,52.7,49.5,41.7,92,63,51,30.21,30.08,3,1,4,0.01
2012-11-25,69.8,47.1,42.6,50.0,42.5,40.2,92,85,47,30.08,29.99,2,0,4,0.01
2012-11-26,48.4,45.5,42.6,44.4,42.7,40.5,92,90,86,30.13,30.02,0,0,1,0.01
2012-11-27,55.6,49.2,44.4,50.5,46.1,42.2,93,89,80,30.17,30.06,2,0,4,0.01
2012-11-28,57.7,54.0,49.3,54.7,51.5,47.3,94,91,89,30.10,29.93,5,2,11,0.51
2012-11-29,63.0,60.6,56.5,56.8,55.8,54.2,92,84,74,30.10,29.90,6,3,13,0.24
2012-11-30,59.7,59.4,59.0,57.9,57.5,56.7,95,94,91,30.01,29.90,6,3,14,1.72
2012-12-1,62.2,60.4,59.2,59.9,58.6,56.6,96,94,90,30.08,29.91,8,4,16,0.65
2012-12-2,62.1,57.4,48.6,59.2,53.2,46.1,95,86,64,30.10,29.83,11,2,25,1.43
2012-12-3,55.0,53.9,52.9,51.2,50.4,49.6,90,88,86,30.24,30.20,1,0,3,0.00
2012-12-4,58.8,57.7,53.4,55.6,54.8,50.6,91,90,89,30.22,30.20,2,0,2,0.01
2012-12-5,56.1,55.7,55.4,55.4,55.0,54.8,98,98,97,30.18,30.16,2,0,4,0.01
2012-12-6,59.0,55.7,48.4,58.4,54.0,47.0,99,94,90,30.18,30.10,3,0,9,0.01
2012-12-7,50.2,44.7,42.1,49.6,43.4,40.8,98,95,93,30.19,30.12,2,0,4,0.01
2012-12-8,41.4,40.9,40.3,39.8,39.3,38.7,94,94,93,30.14,30.13,0,0,0,0.01
2012-12-9,64.4,48.0,37.4,51.6,43.0,36.4,98,85,53,30.25,30.14,2,0,4,0.00
2012-12-10,47.1,44.9,40.1,44.8,42.6,39.1,96,91,88,30.30,30.17,1,0,2,0.00
2012-12-11,58.3,48.3,40.6,51.8,45.2,39.6,96,89,77,30.11,29.88,2,1,6,0.09
2012-12-12,59.7,48.1,40.3,47.7,40.7,36.4,91,77,45,29.95,29.86,4,1,9,0.02
2012-12-13,55.6,42.0,36.1,47.9,38.8,34.0,92,88,74,29.98,29.89,3,0,6,0.22
2012-12-14,52.0,44.2,35.6,42.0,37.9,33.5,93,79,68,29.95,29.89,2,0,3,0.02
2012-12-15,46.4,41.8,35.4,43.0,39.5,34.4,96,92,85,30.16,30.09,2,0,3,0.06
2012-12-16,53.6,51.8,48.9,43.7,41.6,40.0,81,68,63,30.18,30.05,8,3,15,0.02
2012-12-17,57.2,53.7,50.9,53.8,51.0,47.8,96,91,84,30.10,29.99,6,2,11,0.34
2012-12-18,54.3,50.7,45.5,39.6,33.3,26.2,73,53,34,30.09,30.05,5,2,11,0.01
2012-12-19,41.5,35.5,27.1,31.8,28.0,24.6,91,75,59,30.34,30.30,2,0,4,0.01
2012-12-20,54.9,48.5,46.4,29.9,27.8,25.0,51,45,32,30.24,30.06,7,2,16,0.00
2012-12-21,52.2,50.0,47.3,43.6,42.1,40.0,87,75,63,29.98,29.95,6,2,14,0.37
2012-12-22,56.1,49.6,46.9,49.2,45.8,43.6,93,87,72,30.14,29.97,8,2,15,0.58
2012-12-23,51.8,50.0,48.2,48.9,47.7,45.8,94,92,86,30.14,29.94,12,2,21,0.80
2012-12-24,44.6,43.3,42.4,41.3,40.4,39.7,90,89,88,30.21,30.20,0,0,0,0.00
2012-12-25,47.5,46.5,43.0,46.0,45.2,41.9,97,95,94,30.20,29.85,6,1,11,0.62
2012-12-26,55.8,46.7,36.5,49.2,43.4,34.9,95,88,78,30.14,29.97,6,1,10,0.00
2012-12-27,54.5,44.0,36.5,49.2,40.7,34.4,97,88,70,30.22,30.14,4,1,11,0.01
2012-12-28,48.7,44.2,35.1,40.0,38.4,33.5,95,80,66,30.26,30.14,2,0,4,0.00
2012-12-30,45.7,39.2,32.5,32.0,29.3,26.1,95,71,48,30.14,30.11,4,1,11,0.00
2012-12-31,54.7,40.0,35.1,35.3,33.1,31.7,90,78,45,30.33,30.29,3,0,8,0.00
2013-1-1,48.0,36.5,33.3,41.4,31.5,29.4,89,82,73,30.36,30.26,3,0,7,0.00